Weather in Toki

Russia / Khabarovsk Krai     49°06′49″N   140°19′06″E
temp.,
°C
wind,
m/s
gust,
m/s
humid.,
%
clouds,
%
prec.,
mm/h
press.,
hPa
HPBL,
m
27 february, sat
sat2701:00−16nw378197 0.0 1028170
04:00−19nw248262 0.0 102958
07:00−19nw24822 0.0 103160
10:00−13nw26751 0.0 1030296
13:00−7nnw14720 0.0 1029478
16:00−7sse23852 0.0 1027299
19:00−13ssw229260 0.0 102724
22:00−11sw229280 0.0 102530
28 february, sun
sun2801:00−10ssw2291100 0.0 102139
04:00−8ssw2395100 0.8 1016104
07:00−8sw2284100 0.0 101424
10:00−4sw1278100 0.0 101286
13:000sw3980100 0.0 10121151
16:00+1sw299086 0.0 10111058
19:00−4wnw5146496 0.0 1013653
22:00−7wnw4126698 0.0 1015340
1 march, mon
mon101:00−10wnw51365100 0.0 1017697
04:00−13w7146156 0.0 1019463
07:00−16wnw512700 0.0 1021312
10:00−14wnw611670 0.0 1023610
13:00−12wnw46680 0.0 1023696
16:00−11wnw476310 0.0 10241153
19:00−16wnw616670 0.0 1026470
22:00−17wnw516707 0.0 1028637
2 march, tue
tue201:00−18w616680 0.0 1028694
04:00−20wnw411730 0.0 1028394
07:00−24wnw22770 0.0 102932
10:00−16wnw511600 0.0 1029801
13:00−14nnw46590 0.0 1028945
16:00−14n25620 0.0 10261210
19:00−19n227879 0.0 102832
22:00−21wnw228047 0.0 102924
3 march, wed
wed301:00−23wnw22800 0.0 102822
04:00−24wnw22780 0.0 102823
07:00−24w22820 0.0 102825
10:00−15wsw16700 0.0 1027466
13:00−12s33750 0.0 1024488
16:00−10sse358045 0.0 1022396
19:00−14ssw358636 0.0 102092
22:00−13sw488330 0.0 1018173